Tracking 17558 objects as of 9-February-2016
HD Live streaming from Space Station
objects crossing your sky now

DELTA 1 DEB

Track DELTA 1 DEB now!
10-day predictions


NORAD ID: 15205
Int'l Code: 1984-088E
Perigee: 554.4 km
Apogee: 3,861.1 km
Inclination: 28.7 °
Period: 131.8 minutes
Semi major axis: 8578 km
RCS: 0.0578 m2 (small)
Launch date: August 16, 1984
Source: United States (US)
Launch site: AIR FORCE EASTERN TEST RANGE (AFETR)

Note: This is SATELLITE DEBRIS
Your satellite tracking list
Your tracking list is empty





NASA's NSSDC Master Catalog

Two Line Element Set (TLE):
1 15205U 84088E   16038.60940794 +.00000047 +00000-0 +76689-5 0  9990
2 15205 028.7204 136.1024 1927248 109.0509 022.3102 10.9261412823618
Source of the keplerian elements: AFSPC

N2YO: 1166